Regional Weather Roundup
Issued by NWS

Home | Current Version | Previous Version | Graphics & Text | Print | Product List | Glossary On
Versions: 1 2 3 4 5 6 7 8 9 10 11 12 13 14 15 16 17 18 19 20 21 22 23 24 25 26 27 28 29 30 31 32 33 34 35 36 37 38 39 40 41 42 43 44 45 46 47 48 49 50
623
ASUS44 KJAN 170003
RWRMS

MISSISSIPPI HOURLY WEATHER ROUNDUP
NATIONAL WEATHER SERVICE JACKSON MS
700 PM CDT TUE SEP 16 2014

NOTE: "FAIR: INDICATES FEW OR NO CLOUDS BELOW 12,000 FEET WITH NO
SIGNIFICANT WEATHER AND/OR OBSTRUCTIONS TO VISIBILITY.

MSZ001>002-007>008-010>013-018>021-025>028-034>036-170100-
NORTHWEST MISSISSIPPI

CITY           SKY/WX    TMP DP  RH WIND       PRES   REMARKS
CLARKSDALE     FAIR      75  68  78 N7        30.03R
CLEVELAND      FAIR      82  71  70 N10       29.99R
GREENWOOD      CLEAR     80  71  74 N3        29.98S
6HR MIN TEMP:  79; 6HR MAX TEMP:  92;

GREENVILLE     CLEAR     84  66  54 N8        29.98R
6HR MIN TEMP:  84; 6HR MAX TEMP:  92;

GRENADA        FAIR      81  70  69 N5        30.00R
OLIVE BRANCH   MOCLDY    72  70  94 NE6       30.04F
OXFORD         FAIR      73  66  78 N8        30.04S
TUNICA         PTCLDY    73  68  83 N6        30.03S
$$

MSZ003>006-009-014>017-022>024-029>033-037>039-170100-
NORTHEAST MISSISSIPPI

CITY           SKY/WX    TMP DP  RH WIND       PRES   REMARKS
COLUMBUS AFB   CLEAR     81  68  63 N2        29.98S
6HR MIN TEMP:  81; 6HR MAX TEMP:  90;

CORINTH        FAIR      72  66  83 N5        30.04R
GOLDN TRIANGLE PTCLDY    86  64  48 N6        29.99
STARKVILLE     FAIR      79  68  69 CALM      29.99R
TUPELO         MOCLDY    79  69  71 NE14      30.00R
6HR MIN TEMP:  79; 6HR MAX TEMP:  88;

$$

MSZ040-058-170100-
CENTRAL MISSISSIPPI

CITY           SKY/WX    TMP DP  RH WIND       PRES   REMARKS
JACKSON INTL   MOCLDY    82  69  64 CALM      29.99S
6HR MIN TEMP:  82; 6HR MAX TEMP:  89;

JACKSON HAWKNS CLOUDY    84  68  58 CALM      30.00S
6HR MIN TEMP:  84; 6HR MAX TEMP:  90; 6HR PCP: TRACE;

MERIDIAN KEY   MOCLDY    79  69  71 CALM      29.99R
6HR MIN TEMP:  79; 6HR MAX TEMP:  90;

MERIDIAN NAS   PTCLDY    85  65  51 CALM      29.99R
6HR MIN TEMP:  83; 6HR MAX TEMP:  89;

RAYMOND        FAIR      81  75  83 CALM      30.00S
VICKSBURG      PTCLDY    79  68  69 E3        29.99S
6HR MIN TEMP:  79; 6HR MAX TEMP:  90;

$$

MSZ059>079-170100-
SOUTH MISSISSIPPI

CITY           SKY/WX    TMP DP  RH WIND       PRES   REMARKS
BROOKHAVEN     FAIR      82  72  69 CALM      30.02R
HATTIESBURG    HVY RAIN  75  74  96 S13       30.01R FOG
6HR MIN TEMP:  75; 6HR MAX TEMP:  92; 6HR PCP:  0.82;

MCCOMB         LGT RAIN  77  73  87 E12G17    30.02R
6HR MIN TEMP:  76; 6HR MAX TEMP:  92; 6HR PCP: TRACE;

NATCHEZ        CLOUDY    82  72  69 CALM      30.00S
6HR MIN TEMP:  82; 6HR MAX TEMP:  90;

PINE BELT      PTCLDY   N/A N/A N/A NW5       29.99S
                                      6HR PCP:  0.07;

$$

MSZ080>082-170100-
COASTAL MISSISSIPPI

CITY           SKY/WX    TMP DP  RH WIND       PRES   REMARKS
BAY ST LOUIS   PTCLDY    73  70  88 NW5       30.01S
BILOXI         LGT RAIN  76  73  88 VRB3      30.01R
6HR MIN TEMP:  75; 6HR MAX TEMP:  88; 6HR PCP:  0.04;

PASCAGOULA     CLOUDY    74  72  93 S9        30.00F
6HR MIN TEMP:  74; 6HR MAX TEMP:  88; 6HR PCP:  0.05;

GULFPORT       LGT RAIN  75  71  87 NW6       29.99S
6HR MIN TEMP:  74; 6HR MAX TEMP:  87; 6HR PCP:  0.70;

$$



USA.gov is the U.S. government's official web portal to all federal, state and local government web resources and services.